Flag for Romania Weather past 2 weeks in Târgu Mureş, Romania

Now
27 °F

Clear.


Feels Like: 21 °F
Forecast: 28 / 36 °F
Wind: 5 mph from East

Location: Tirgu Mures Airport

Current Time: Feb 1, 2015 at 12:09:21 AM

Latest Report: Jan 31, 2015 at 11:00 PM


Visibility: 10 mi

Pressure: 29.39 "Hg

Humidity: 93%

Dew point: 25 °F

Location of Târgu MureşLocation

Historic Weather in Târgu Mureş — Graph

°F

Târgu Mureş temperature yesterday

Maximum temperature yesterday: 48 °F (at 4:00 AM)
Minimum temperature yesterday: 27 °F (at 9:00 PM)
Average temperature yesterday: 40 °F

Past Weeks' High & Low Weather Summary

 TemperatureHumidityPressure
High54 °F (Jan 21, 3:30 PM)100% (Jan 16, 11:00 PM)30.18 "Hg (Jan 16, 11:00 PM)
Low23 °F (Jan 17, 7:00 AM)42% (Jan 31, 3:00 PM)28.91 "Hg (Jan 31, 4:00 AM)
Average37 °F88%29.85 "Hg
* Reported Jan 16 11:00 PM — Jan 31 11:00 PM, Târgu Mureş, Weather by CustomWeather, © 2014

Note: Actual official high and low records may vary slightly from our data, if they occured in-between our weather recording intervals... More about our weather records

Advertising

Târgu Mureş weather history for previous 24 hours

 ConditionsComfort  
Time TempWeatherWind HumidityBarometerVisibility
11:00 PM
Jan 31
27 °FClear.5 mph93%29.39 "Hg10 mi
10:00 PM27 °FPassing clouds.2 mph86%29.39 "HgN/A
9:00 PM27 °FPassing clouds.2 mph86%29.36 "HgN/A
8:30 PM28 °FPassing clouds.2 mph86%29.36 "HgN/A
8:00 PM28 °FPassing clouds.2 mph86%29.36 "HgN/A
7:30 PM30 °FClear.2 mph80%29.36 "Hg10 mi
7:00 PM30 °FPassing clouds.2 mph80%29.33 "HgN/A
6:30 PM32 °FPassing clouds.1 mph75%29.33 "HgN/A
6:00 PM36 °FPassing clouds.3 mph70%29.30 "HgN/A
5:30 PM37 °FPassing clouds.9 mph65%29.30 "HgN/A
5:00 PM39 °FPassing clouds.10 mph56%29.27 "HgN/A
4:30 PM41 °FPassing clouds.12 mph53%29.27 "HgN/A
4:00 PM43 °FScattered clouds.13 mph46%29.24 "HgN/A
3:30 PM41 °FScattered clouds.15 mph49%29.24 "HgN/A
3:00 PM43 °FScattered clouds.18 mph42%29.24 "HgN/A
2:30 PM43 °FScattered clouds.16 mph46%29.21 "HgN/A
2:00 PM45 °FScattered clouds.20 mph46%29.21 "HgN/A
1:30 PM43 °FScattered clouds.22 mph46%29.18 "HgN/A
1:00 PM45 °FScattered clouds.18 mph49%29.15 "HgN/A
12:30 PM43 °FScattered clouds.25 mph57%29.15 "HgN/A
12:00 PM43 °FScattered clouds.28 mph53%29.15 "HgN/A
11:30 AM43 °FScattered clouds.31 mph57%29.12 "HgN/A
11:00 AM43 °FPassing clouds.29 mph57%29.12 "HgN/A
10:30 AM41 °FPassing clouds.22 mph70%29.09 "HgN/A
10:00 AM45 °FScattered clouds.18 mph61%29.09 "HgN/A
9:30 AM43 °FScattered clouds.17 mph66%29.06 "HgN/A
9:00 AM43 °FScattered clouds.13 mph66%29.06 "HgN/A
8:30 AM43 °FScattered clouds.12 mph71%29.03 "HgN/A
8:00 AM43 °FScattered clouds.12 mph71%29.03 "HgN/A
7:30 AM41 °FPassing clouds.13 mph81%29.03 "HgN/A
7:00 AM43 °FSprinkles. Passing clouds.17 mph76%29.00 "HgN/A
6:30 AM46 °FPassing clouds.9 mph71%28.97 "HgN/A
6:00 AM46 °FPassing clouds.9 mph71%28.94 "HgN/A
5:00 AM48 °FPassing clouds.16 mph66%28.94 "HgN/A
4:00 AM48 °FPassing clouds.9 mph66%28.91 "HgN/A
3:00 AM39 °FPassing clouds.2 mph87%28.94 "HgN/A
2:00 AM41 °FPassing clouds.3 mph81%28.94 "HgN/A
1:00 AM41 °FLight rain. Passing clouds.3 mph81%28.94 "HgN/A
12:00 AM41 °FClear.12 mph76%28.97 "Hg10 mi
Weather by CustomWeather, © 2014

See weather overviewHow to use our weather pages